Regional Weather Roundup
Issued by NWS New Orleans/Baton Rouge, LA

Home | Current Version | Previous Version | Text Only | Print | Product List | Glossary On
Versions: 1 2 3 4 5 6 7 8 9 10 11 12 13 14 15 16 17 18 19 20 21 22 23 24 25 26 27 28 29 30 31 32 33 34 35 36 37 38 39 40 41 42 43 44 45 46 47 48 49 50
388
ASUS44 KLIX 202013
RWRLIX
NEW ORLEANS REGIONAL WEATHER ROUNDUP
NATIONAL WEATHER SERVICE NEW ORLEANS LA
200 PM CST MON FEB 20 2017

NOTE: "FAIR" INDICATES FEW OR NO CLOUDS BELOW 12,000 FEET WITH NO
      SIGNIFICANT WEATHER AND/OR OBSTRUCTIONS TO VISIBILITY.
      SKY/WX - SKY CONDITION AND SIGNIFICANT WEATHER.
      TMP - AIR TEMPERATURE.     DP    - DEWPOINT TEMPERATURE.
      RH  - RELATIVE HUMIDITY.   PRES  - PRESSURE.
      HI  - HEAT INDEX.          WCI   - WIND CHILL INDEX.

*  THESE STATIONS ARE NOT NWS OR FAA STATIONS AND ARE NOT UNDER
   NWS QUALITY CONTROL.

LAZ038-040-048-061>063-065>067-069-202100-
SOUTHEAST LOUISIANA

CITY           SKY/WX    TMP DP  RH WIND       PRES   REMARKS
N.O. AUDUBON   NOT AVBL
N.O. INTL ARPT PTSUNNY   77  67  71 S17G25    30.00F
N.O. LAKEFRONT MOSUNNY   77  67  71 SE14      30.01F
N.O. DOWNTOWN*   N/A     77  67  71 S9        30.02F
RESERVE*       MOCLDY    81  68  64 SE13      29.99F
SLIDELL        PTSUNNY   78  62  57 SE12      30.02F
BATON ROUGE    CLOUDY    82  65  56 SE15      29.97F
BOOTHVILLE     CLOUDY    74  69  85 S14       30.04F
BELLE CHASSE   CLOUDY    76  69  79 SE9       30.01F
BOGALUSA*        N/A     80  54  40 SE13      30.04F
GALLIANO*      CLOUDY    76  67  75 SE12      30.00F
NEW ROADS*     CLOUDY    78  66  67 SE12      29.97F
GONZALES*      MOCLDY    79  66  65 S10G17    29.98S
HAMMOND*       PTSUNNY   77  63  61 SE12      30.01F
HOUMA*         CLOUDY    75  70  83 SE15G21   30.00F
PORT FOURCHON* PTCLDY    73  70  88 E9G17     29.99F

$$

MSZ070-080>082-202100-
SOUTHERN MISSISSIPPI

CITY           SKY/WX    TMP DP  RH WIND       PRES   REMARKS
MCCOMB         PTSUNNY   77  60  55 SE10      30.01F
GULFPORT       CLOUDY    74  65  73 SE14      30.06F
BILOXI         CLOUDY    74  64  72 SE12      30.06F
PASCAGOULA     MOSUNNY   77  56  48 S10       30.07F
STENNIS ARPT*  MOSUNNY   75  59  57 S10       30.04F

$$

COASTAL OBSERVATIONS
LAKE AND NEARSHORE STATIONS

STATION/POSITION TIME  TEMP    WIND        PRES    WAVE
                       AIR SEA DIR/SP/G            HT/PER
                 (UTC) (F)     (DEG/KT/KT) (MB)    (FT/S)
PASCAGOULA       1948   73     120/ 11/ 15 1018.0
WAVELAND YACHT   1948   69 65  120/ 10/ 12 1017.2
GRAND ISLE       1948   72 67  110/  5/  9 1016.5
SOUTHWEST PASS   1942          130/ 10/ 12   N/A
NEW CANAL        1948   78 66  140/  3/ 10 1015.4
SHELL BEACH      1948   74 67  140/ 13/ 15 1016.9

OFFSHORE STATIONS

STATION/POSITION TIME  TEMP    WIND        PRES    WAVE
                       AIR SEA DIR/SP/G            HT/PER
                 (UTC) (F)     (DEG/KT/KT) (MB)    (FT/S)

$$





USA.gov is the U.S. government's official web portal to all federal, state and local government web resources and services.